Asiasat 9

operational
NORAD ID: 42942 Int'l Des: 2017-057 Owner: ASIA Country: HK
HEOCIRCULARGSOGEO

About Asiasat 9

Description loading...

Live Position

Loading 3D Globe...

Upcoming Passes

Altitude History

Altitude vs Time

uPlot chart will show altitude changes over time

Two-Line Element Set

1 42942U 17057A 26062.40376896 -.00000375 00000-0 00000+0 0 9995
2 42942 0.0120 138.5904 0002236 203.4532 86.5802 1.00270257 30790
Epoch: Mar 3, 2026 • Age: 22 hours

Current Status

Altitude 35785.8 km
Velocity 3.07 km/s
Sub-Earth Point 0.04°N, 122.09°E
Launch Date Sep 28, 2017
Age 8.4 years
Type other

Technical Details

Classification Payload
Mass 6141.00 kg
Dry Mass 3500.00 kg
Total Mass 6141.00 kg
Length 7.00 m
Diameter 3.00 m
Span 27.00 m
Shape Box + 2 pan
Manufacturer SSL
Bus Type LS-1300
Phase Status In Orbit
Owner/State ASIA/HK

Large Constellations

Loading constellations...